TimeCST,TemperatureF,Dew PointF,Humidity,Sea Level PressureIn,VisibilityMPH,Wind Direction,Wind SpeedMPH,Gust SpeedMPH,PrecipitationIn,Events,Conditions,WindDirDegrees,DateUTC
12:15 AM,64.9,61.3,88,29.93,7.0,Calm,Calm,-,N/A,,Clear,0,2013-11-16 06:15:00
12:35 AM,64.0,60.8,89,29.93,7.0,SSE,3.5,-,N/A,,Clear,160,2013-11-16 06:35:00
12:55 AM,64.8,61.7,90,29.92,7.0,SSE,4.6,-,N/A,,Clear,150,2013-11-16 06:55:00
1:15 AM,64.8,61.9,90,29.91,7.0,SSE,3.5,-,N/A,,Scattered Clouds,150,2013-11-16 07:15:00
1:35 AM,64.9,62.1,90,29.90,7.0,SSE,3.5,-,N/A,,Clear,150,2013-11-16 07:35:00
1:55 AM,64.6,62.1,92,29.89,7.0,SSE,4.6,-,N/A,,Clear,160,2013-11-16 07:55:00
2:15 AM,65.5,62.8,91,29.88,7.0,South,3.5,-,N/A,,Clear,170,2013-11-16 08:15:00
2:35 AM,64.9,62.6,92,29.87,7.0,SSE,4.6,-,N/A,,Scattered Clouds,160,2013-11-16 08:35:00
2:55 AM,64.8,62.2,92,29.87,7.0,SSE,3.5,-,N/A,,Mostly Cloudy,150,2013-11-16 08:55:00
3:15 AM,64.8,62.2,92,29.87,5.0,SSE,3.5,-,N/A,,Overcast,160,2013-11-16 09:15:00
3:35 AM,64.4,62.1,92,29.86,5.0,Calm,Calm,-,N/A,,Scattered Clouds,0,2013-11-16 09:35:00
3:55 AM,64.6,62.1,92,29.86,7.0,Calm,Calm,-,N/A,,Scattered Clouds,0,2013-11-16 09:55:00
4:15 AM,64.8,62.6,93,29.86,2.5,SSE,4.6,-,N/A,,Clear,150,2013-11-16 10:15:00
4:35 AM,65.5,63.1,92,29.86,5.0,SSE,4.6,-,N/A,,Clear,160,2013-11-16 10:35:00
4:55 AM,65.7,63.5,93,29.86,7.0,SSE,3.5,-,N/A,,Clear,160,2013-11-16 10:55:00
5:15 AM,65.8,63.5,92,29.86,7.0,Calm,Calm,-,N/A,,Clear,0,2013-11-16 11:15:00
5:35 AM,65.8,63.5,92,29.86,7.0,South,3.5,-,N/A,,Clear,170,2013-11-16 11:35:00
5:55 AM,66.7,64.4,92,29.86,7.0,SSE,4.6,-,N/A,,Clear,160,2013-11-16 11:55:00
6:15 AM,67.1,64.4,91,29.85,7.0,SE,4.6,-,N/A,,Clear,140,2013-11-16 12:15:00
6:35 AM,67.1,64.4,91,29.85,7.0,SSE,4.6,-,N/A,,Clear,150,2013-11-16 12:35:00
6:55 AM,67.6,65.1,92,29.86,7.0,SSE,5.8,-,N/A,,Clear,160,2013-11-16 12:55:00
7:15 AM,68.9,66.0,90,29.86,7.0,SSE,6.9,-,N/A,,Clear,150,2013-11-16 13:15:00
7:35 AM,68.9,65.7,89,29.86,5.0,SE,5.8,-,N/A,,Clear,140,2013-11-16 13:35:00
7:55 AM,69.8,66.2,88,29.87,7.0,SSE,8.1,-,N/A,,Scattered Clouds,160,2013-11-16 13:55:00
8:15 AM,70.7,66.4,86,29.87,7.0,SSE,8.1,-,N/A,,Scattered Clouds,160,2013-11-16 14:15:00
8:35 AM,72.9,67.5,83,29.88,7.0,SSE,9.2,-,N/A,,Clear,160,2013-11-16 14:35:00
8:55 AM,75.4,67.1,75,29.88,7.0,South,9.2,16.1,N/A,,Scattered Clouds,170,2013-11-16 14:55:00
9:15 AM,76.3,67.1,73,29.88,7.0,South,9.2,-,N/A,,Scattered Clouds,170,2013-11-16 15:15:00
9:35 AM,76.6,67.6,74,29.89,7.0,South,6.9,-,N/A,,Clear,170,2013-11-16 15:35:00
9:55 AM,79.0,68.5,70,29.89,10.0,SSE,11.5,-,N/A,,Scattered Clouds,150,2013-11-16 15:55:00
10:15 AM,79.3,68.9,70,29.89,7.0,SSE,10.4,-,N/A,,Mostly Cloudy,160,2013-11-16 16:15:00
10:35 AM,80.8,68.9,67,29.89,10.0,South,15.0,19.6,N/A,,Mostly Cloudy,170,2013-11-16 16:35:00
10:55 AM,81.5,68.9,65,29.88,7.0,South,13.8,17.3,N/A,,Mostly Cloudy,170,2013-11-16 16:55:00
11:15 AM,81.9,68.9,65,29.88,7.0,SSE,12.7,20.7,N/A,,Overcast,160,2013-11-16 17:15:00
11:35 AM,81.5,68.7,65,29.86,10.0,South,11.5,17.3,N/A,,Overcast,170,2013-11-16 17:35:00
11:55 AM,81.7,68.7,65,29.86,10.0,SSE,15.0,-,N/A,,Overcast,160,2013-11-16 17:55:00
12:15 PM,82.8,68.9,63,29.85,7.0,South,16.1,19.6,N/A,,Overcast,180,2013-11-16 18:15:00
12:35 PM,82.8,68.9,63,29.83,7.0,South,11.5,-,N/A,,Overcast,180,2013-11-16 18:35:00
12:55 PM,83.1,69.3,63,29.82,10.0,South,16.1,21.9,N/A,,Overcast,170,2013-11-16 18:55:00
1:15 PM,83.5,68.7,61,29.80,7.0,South,16.1,24.2,N/A,,Overcast,180,2013-11-16 19:15:00
1:35 PM,84.2,69.1,60,29.79,10.0,South,13.8,23.0,N/A,,Overcast,170,2013-11-16 19:35:00
1:55 PM,82.8,69.4,64,29.79,10.0,SSE,16.1,-,N/A,,Overcast,160,2013-11-16 19:55:00
2:15 PM,83.3,69.8,64,29.78,7.0,SSE,16.1,20.7,N/A,,Overcast,160,2013-11-16 20:15:00
2:35 PM,82.8,69.8,65,29.77,7.0,SSE,13.8,18.4,N/A,,Overcast,160,2013-11-16 20:35:00
2:55 PM,82.6,69.8,65,29.78,10.0,SSE,12.7,18.4,N/A,,Overcast,160,2013-11-16 20:55:00
3:15 PM,82.6,70.3,66,29.77,10.0,SSE,9.2,-,N/A,,Overcast,160,2013-11-16 21:15:00
3:35 PM,82.9,70.5,66,29.77,10.0,SSE,10.4,17.3,N/A,,Overcast,160,2013-11-16 21:35:00
3:55 PM,82.0,70.7,68,29.77,10.0,SE,8.1,-,N/A,,Overcast,140,2013-11-16 21:55:00
4:15 PM,81.5,71.1,70,29.77,10.0,SE,10.4,-,N/A,,Overcast,130,2013-11-16 22:15:00
4:35 PM,81.7,70.7,69,29.77,10.0,SSE,10.4,-,N/A,,Overcast,150,2013-11-16 22:35:00
4:55 PM,81.9,68.9,65,29.77,7.0,SSE,15.0,19.6,N/A,,Mostly Cloudy,160,2013-11-16 22:55:00
5:15 PM,81.0,69.4,68,29.78,10.0,SSE,9.2,18.4,N/A,,Scattered Clouds,150,2013-11-16 23:15:00
5:35 PM,79.9,69.6,71,29.78,10.0,SSE,9.2,-,N/A,,Scattered Clouds,150,2013-11-16 23:35:00
5:55 PM,78.8,69.4,73,29.79,10.0,SSE,11.5,17.3,N/A,,Clear,150,2013-11-16 23:55:00
6:15 PM,77.9,68.9,74,29.80,10.0,SSE,10.4,-,N/A,,Clear,160,2013-11-17 00:15:00
6:35 PM,77.2,68.9,76,29.80,10.0,SSE,8.1,-,N/A,,Clear,150,2013-11-17 00:35:00
6:55 PM,77.0,68.9,76,29.81,10.0,SSE,10.4,-,N/A,,Clear,160,2013-11-17 00:55:00
7:15 PM,76.6,68.9,77,29.82,10.0,SSE,10.4,-,N/A,,Clear,150,2013-11-17 01:15:00
7:35 PM,76.1,69.1,79,29.82,10.0,SSE,10.4,-,N/A,,Clear,160,2013-11-17 01:35:00
7:55 PM,75.7,69.1,80,29.83,10.0,SSE,9.2,-,N/A,,Clear,160,2013-11-17 01:55:00
8:15 PM,76.1,69.3,79,29.83,10.0,SSE,10.4,-,N/A,,Clear,160,2013-11-17 02:15:00
8:35 PM,75.6,69.3,81,29.84,10.0,SSE,9.2,-,N/A,,Clear,160,2013-11-17 02:35:00
8:55 PM,75.2,68.9,81,29.84,10.0,SSE,8.1,-,N/A,,Clear,160,2013-11-17 02:55:00
9:15 PM,74.7,68.9,82,29.84,10.0,SSE,11.5,-,N/A,,Clear,160,2013-11-17 03:15:00
9:35 PM,74.5,68.5,82,29.84,10.0,South,9.2,-,N/A,,Clear,170,2013-11-17 03:35:00
9:55 PM,73.9,68.5,83,29.85,10.0,South,9.2,-,N/A,,Clear,170,2013-11-17 03:55:00
10:15 PM,73.9,68.9,84,29.84,10.0,SSE,11.5,-,N/A,,Clear,160,2013-11-17 04:15:00
10:35 PM,73.9,68.9,84,29.84,10.0,SSE,10.4,16.1,N/A,,Clear,160,2013-11-17 04:35:00
10:55 PM,74.1,68.7,83,29.84,10.0,South,9.2,17.3,N/A,,Clear,170,2013-11-17 04:55:00
11:15 PM,73.9,68.5,83,29.83,10.0,South,10.4,-,N/A,,Clear,170,2013-11-17 05:15:00
11:35 PM,73.9,68.2,82,29.83,10.0,South,12.7,18.4,N/A,,Clear,170,2013-11-17 05:35:00
11:55 PM,73.8,68.0,82,29.83,10.0,South,12.7,18.4,N/A,,Clear,180,2013-11-17 05:55:00